カタログに戻る

FENGYUN 1C DEB

運用中SSO
NORAD 30905·DEBRIS·🇨🇳 China

打ち上げ May 10, 1999 から Taiyuan Satellite Launch Center

Loading…

次のパス (今後24時間)

TLE

経年Source: Space-Track

元期: Sep 9, 2026, 11:00 UTC

1 30905U 99025AYT 26252.45895390  .00001515  00000-0  73110-3 0  9999
2 30905  98.8789 333.2454 0053766  30.8670 329.5648 14.19410523999614

AllMySatでFENGYUN 1C DEBをリアルタイム追跡

Download on the App Store